Regional Weather Roundup
Issued by NWS

Home | Current Version | Previous Version | Graphics & Text | Print | Product List | Glossary On
Versions: 1 2 3 4 5 6 7 8 9 10 11 12 13 14 15 16 17 18 19 20 21 22 23 24 25 26 27
000
ASUS45 KSLC 061010
RWRUT

UTAH REGIONAL WEATHER ROUNDUP
NATIONAL WEATHER SERVICE SALT LAKE CITY UT
300 AM MST TUE DEC 06 2016

UTZ001>011-023>025-061100-

NORTHERN UTAH

CITY           SKY/WX    TMP DP  RH WIND       PRES   REMARKS
BRIGHAM CITY     N/A     15   8  73 NW6       29.96F WCI   6
HILL AFB       CLOUDY    14  -3  47 E20       29.93S WCI  -3
LOGAN          CLEAR    N/A N/A N/A CALM      29.97F
OGDEN          CLEAR     16   1  51 S9        29.94S WCI   4
SALT LAKE CITY MOCLDY    23  11  60 S3        29.95F
TOOELE VALLEY  CLEAR     23  18  80 SW8       29.95S WCI  14
WENDOVER       CLEAR     14   1  57 W5        29.94F WCI   6
HEBER CITY     MOCLDY    14   5  67 E3        29.91F
WEST JORDAN    CLOUDY    24  15  68 CALM      29.94S

$$

UTZ011>015-024>027-061100-

CENTRAL/NORTHEAST UTAH

CITY           SKY/WX    TMP DP  RH WIND       PRES   REMARKS
PROVO AIRPORT  MOCLDY    24  12  60 CALM      29.95F
MOAB/CANYONLAN CLEAR     25  -1  32 S6        29.92R WCI  18
DELTA          MOCLDY    12   5  73 S6        29.93S WCI   3
PRICE          PTCLDY    17   5  59 E3        29.89S
RICHFIELD      CLEAR     12   9  85 CALM      29.96S
ROOSEVELT      CLOUDY    21   0  39 CALM      29.99S
VERNAL         CLOUDY    17  -3  41 NE3       29.97S

$$

UTZ013>016-019>022-027-061100-

SOUTHERN UTAH

CITY           SKY/WX    TMP DP  RH WIND       PRES   REMARKS
BRYCE CANYON   PTCLDY     4  -1  80 CALM      29.86S
CEDAR CITY     PTCLDY    17  11  77 E5        29.88R WCI  10
MILFORD        MOCLDY    13   3  64 NW6       29.91F WCI   4
ST GEORGE      MOSUNNY   37  19  48 CALM      29.90S
HANKSVILLE     CLEAR     23   3  42 N7        29.96S WCI  15
KANAB          PTCLDY    28  19  69 NE7       29.92S WCI  21
BLANDING       CLEAR     22  12  67 N6        29.94F WCI  14

$$

REGIONAL REPORTS     COLORADO/ARIZONA

CITY           SKY/WX    TMP DP  RH WIND       PRES   REMARKS
CRAIG, CO      CLOUDY    -4 -10  75 CALM      29.97S
GRAND JUNCTION CLEAR     20   7  57 E5        29.95F WCI  13
RIFLE, CO      CLOUDY    23   6  48 W5        29.95F WCI  17
MONTROSE, CO   CLOUDY    16   9  74 SE8       29.97S WCI   5
CORTEZ, CO     CLOUDY    20  17  88 E6        29.89F WCI  12
COLORADO CITY    N/A     28  23  80 CALM      29.90S
PAGE, AZ       CLOUDY    40  16  37 CALM      29.85S
GRAND CANYON   CLOUDY    26  22  84 CALM      29.92F
KINGMAN, AZ    CLOUDY    39  14  36 CALM      29.88F
FLAGSTAFF, AZ  CLOUDY    31  19  61 SW3       29.94S

$$

REGIONAL REPORTS    NEVADA/IDAHO/WYOMING

CITY           SKY/WX    TMP DP  RH WIND       PRES   REMARKS
LAS VEGAS, NV  CLOUDY    47  18  31 CALM      29.82S
ELY, NY        PTCLDY     8   4  83 S10       29.88F WCI  -6
ELKO, NV       PTCLDY    15  10  80 CALM      29.88F
POCATELLO, ID  CLEAR      4   0  83 NE8       29.95F WCI  -9
BURLEY, ID     CLEAR     10   6  84 NE3       29.92F
FORT BRIDGER,    N/A      1 -15  47 SE7       29.90S WCI -11
EVANSTON, WY   CLOUDY     2 -17  41 SE5       29.85F WCI  -8
ROCK SPRINGS,  CLOUDY     2  -9  60 CALM      29.89F
KEMMERER, WY     N/A    -11 -17  77 N9        29.85F WCI -29

$$




USA.gov is the U.S. government's official web portal to all federal, state and local government web resources and services.